Weather History for Georgetown, SC

Change the Weather History Date:

Tuesday, January 29, 2013

  Actual Average Record
Temperature  
Mean Temperature 60 °F -  
Max Temperature 77 °F 60 °F 77 °F (2013)
Min Temperature 44 °F 36 °F 24 °F (2014)
Degree Days  
Heating Degree Days 4    
Growing Degree Days 10 (Base 50)    
Moisture  
Dew Point 61 °F    
Average Humidity 76    
Maximum Humidity 100    
Minimum Humidity 57    
Precipitation  
Precipitation 0.00 in - - ()
Sea Level Pressure  
Sea Level Pressure 30.21 in    
Wind  
Wind Speed 6 mph (SW)    
Max Wind Speed 13 mph    
Max Gust Speed 18 mph    
Visibility 9 miles    
Events Fog    
Averages and records for this station are not official NWS values.
T = Trace of Precipitation, MM = Missing Value Source: NWS Daily Summary

Daily Weather History Graph

Daily Weather History Graph

Search for Another Location

Airport:

Trip Planner

Search our weather history database for the weather conditions in past years. The results will help you decide how hot, cold, wet, or windy it might be!

Date:

Astronomy

Jan. 29, 2013 Rise Set
Actual Time 7:14 AM EST 5:46 PM EST
Civil Twilight 6:48 AM EST 6:12 PM EST
Nautical Twilight 6:18 AM EST 6:42 PM EST
Astronomical Twilight 5:49 AM EST 7:11 PM EST
Moon 8:28 PM EST 8:21 AM EST
Length of Visible Light 11h 23m
Length of Day
10h 31m
Waning Gibbous, 94% of the Moon is Illuminated
Jan 29
Waning Gibbous
Feb 3
Last Quarter
Feb 10
New
Feb 17
First Quarter
Feb 25
Full

Hourly Weather History & Observations

Time (EST) Temp. Dew Point Humidity Pressure Visibility Wind Dir Wind Speed Gust Speed Precip Events Conditions
1:15 AM 44.6 °F 44.6 °F 100% 30.29 in 7.0 mi Calm Calm - N/A   Clear
9:15 AM 55.4 °F 55.4 °F 100% 30.28 in 0.2 mi Calm Calm - N/A Fog Fog
9:35 AM 57.2 °F 57.2 °F 100% 30.29 in 1.5 mi West 3.5 mph - N/A   Overcast
9:55 AM 59.0 °F 59.0 °F 100% 30.28 in 10.0 mi SW 3.5 mph - N/A   Scattered Clouds
10:15 AM 60.8 °F 60.8 °F 100% 30.28 in 10.0 mi SW 4.6 mph - N/A   Clear
10:35 AM 66.2 °F 64.4 °F 94% 30.28 in 10.0 mi WSW 8.1 mph - N/A   Clear
10:55 AM 69.8 °F 64.4 °F 83% 30.27 in 10.0 mi WSW 9.2 mph - N/A   Clear
11:15 AM 71.6 °F 62.6 °F 73% 30.26 in 10.0 mi SSW 10.4 mph 16.1 mph N/A   Clear
11:35 AM 71.6 °F 62.6 °F 73% 30.25 in 7.0 mi WSW 10.4 mph 16.1 mph N/A   Clear
11:55 AM 71.6 °F 62.6 °F 73% 30.24 in 10.0 mi WSW 11.5 mph - N/A   Clear
12:15 PM 73.4 °F 62.6 °F 69% 30.23 in 10.0 mi SW 9.2 mph 16.1 mph N/A   Scattered Clouds
12:55 PM 73.4 °F 60.8 °F 65% 30.21 in 10.0 mi SW 10.4 mph - N/A   Scattered Clouds
1:15 PM 77.0 °F 60.8 °F 57% 30.20 in 10.0 mi SW 10.4 mph - N/A   Scattered Clouds
1:35 PM 77.0 °F 60.8 °F 57% 30.19 in 10.0 mi SW 8.1 mph - N/A   Mostly Cloudy
1:55 PM 77.0 °F 60.8 °F 57% 30.17 in 10.0 mi SSW 10.4 mph - N/A   Scattered Clouds
2:15 PM 73.4 °F 60.8 °F 65% 30.17 in 10.0 mi SW 6.9 mph - N/A   Scattered Clouds
2:35 PM 77.0 °F 60.8 °F 57% 30.16 in 10.0 mi SW 10.4 mph - N/A   Scattered Clouds
2:55 PM 75.2 °F 60.8 °F 61% 30.16 in 10.0 mi SSW 11.5 mph - N/A   Clear
3:15 PM 75.2 °F 60.8 °F 61% 30.16 in 10.0 mi South 11.5 mph 17.3 mph N/A   Clear
3:35 PM 75.2 °F 60.8 °F 61% 30.16 in 10.0 mi South 9.2 mph - N/A   Clear
4:15 PM 71.6 °F 60.8 °F 69% 30.16 in 10.0 mi South 11.5 mph - N/A   Clear
4:35 PM 71.6 °F 60.8 °F 69% 30.16 in 10.0 mi SSW 10.4 mph - N/A   Clear
4:55 PM 71.6 °F 60.8 °F 69% 30.16 in 10.0 mi SSW 11.5 mph 18.4 mph N/A   Clear
5:15 PM 69.8 °F 62.6 °F 78% 30.16 in 10.0 mi South 12.7 mph 16.1 mph N/A   Clear
5:35 PM 68.0 °F 62.6 °F 83% 30.17 in 10.0 mi SSW 9.2 mph - N/A   Clear
5:55 PM 68.0 °F 62.6 °F 83% 30.17 in 10.0 mi SSW 9.2 mph - N/A   Clear
6:15 PM 66.2 °F 62.6 °F 88% 30.17 in 10.0 mi SSW 9.2 mph - N/A   Clear